Year,Month,Day,Hour,Minute,Value (Times are PST for temperature in C)
2008,03,27,00,00,0.90
2008,03,27,00,01,1.00
2008,03,27,00,02,1.20
2008,03,27,00,03,1.30
2008,03,27,00,04,1.30
2008,03,27,00,05,1.40
2008,03,27,00,06,1.50
2008,03,27,00,07,1.60
2008,03,27,00,08,1.60
2008,03,27,00,09,1.70
2008,03,27,00,10,1.80
2008,03,27,00,11,1.80
2008,03,27,00,12,1.80
2008,03,27,00,13,1.90
2008,03,27,00,14,1.90
2008,03,27,00,15,2.00
2008,03,27,00,16,2.10
2008,03,27,00,17,2.20
2008,03,27,00,18,2.30
2008,03,27,00,19,2.30
2008,03,27,00,20,2.40
2008,03,27,00,21,2.40
2008,03,27,00,22,2.40
2008,03,27,00,23,2.40
2008,03,27,00,24,2.50
2008,03,27,00,25,2.50
2008,03,27,00,26,2.50
2008,03,27,00,27,2.50
2008,03,27,00,28,2.50
2008,03,27,00,29,2.50
2008,03,27,00,30,2.50
2008,03,27,00,31,2.40
2008,03,27,00,32,2.40
2008,03,27,00,33,2.30
2008,03,27,00,34,2.20
2008,03,27,00,35,2.10
2008,03,27,00,36,2.10
2008,03,27,00,37,2.20
2008,03,27,00,38,2.20
2008,03,27,00,39,2.10
2008,03,27,00,40,2.10
2008,03,27,00,41,2.20
2008,03,27,00,42,2.20
2008,03,27,00,43,2.20
2008,03,27,00,44,2.30
2008,03,27,00,45,2.30
2008,03,27,00,46,2.30
2008,03,27,00,47,2.40
2008,03,27,00,48,2.40
2008,03,27,00,49,2.40
2008,03,27,00,50,2.30
2008,03,27,00,51,2.20
2008,03,27,00,52,2.20
2008,03,27,00,53,2.10
2008,03,27,00,54,2.00
2008,03,27,00,55,1.90
2008,03,27,00,56,1.80
2008,03,27,00,57,1.80
2008,03,27,00,58,1.60
2008,03,27,00,59,1.40
2008,03,27,01,00,1.30
2008,03,27,01,01,1.30
2008,03,27,01,02,1.10
2008,03,27,01,03,1.00
2008,03,27,01,04,0.90
2008,03,27,01,05,0.80
2008,03,27,01,06,0.80
2008,03,27,01,07,0.70
2008,03,27,01,08,0.70
2008,03,27,01,09,0.70
2008,03,27,01,10,0.60
2008,03,27,01,11,0.60
2008,03,27,01,12,0.50
2008,03,27,01,13,0.50
2008,03,27,01,14,0.40
2008,03,27,01,15,0.40
2008,03,27,01,16,0.40
2008,03,27,01,17,0.30
2008,03,27,01,18,0.30
2008,03,27,01,19,0.30
2008,03,27,01,20,0.30
2008,03,27,01,21,0.30
2008,03,27,01,22,0.30
2008,03,27,01,23,0.30
2008,03,27,01,24,0.30
2008,03,27,01,25,0.30
2008,03,27,01,26,0.30
2008,03,27,01,27,0.30
2008,03,27,01,28,0.30
2008,03,27,01,29,0.30
2008,03,27,01,30,0.30
2008,03,27,01,31,0.40
2008,03,27,01,32,0.40
2008,03,27,01,33,0.40
2008,03,27,01,34,0.40
2008,03,27,01,35,0.40
2008,03,27,01,36,0.30
2008,03,27,01,37,0.30
2008,03,27,01,38,0.30
2008,03,27,01,39,0.30
2008,03,27,01,40,0.30
2008,03,27,01,41,0.30
2008,03,27,01,42,0.20
2008,03,27,01,43,0.20
2008,03,27,01,44,0.10
2008,03,27,01,45,0.10
2008,03,27,01,46,0.00
2008,03,27,01,47,0.00
2008,03,27,01,48,-0.10
2008,03,27,01,49,-0.10
2008,03,27,01,50,-0.10
2008,03,27,01,51,-0.20
2008,03,27,01,52,-0.20
2008,03,27,01,53,-0.20
2008,03,27,01,54,-0.30
2008,03,27,01,55,-0.30
2008,03,27,01,56,-0.30
2008,03,27,01,57,-0.30
2008,03,27,01,58,-0.30
2008,03,27,01,59,-0.30
2008,03,27,02,00,-0.30
2008,03,27,02,01,-0.30
2008,03,27,02,02,-0.30
2008,03,27,02,03,-0.30
2008,03,27,02,04,-0.30
2008,03,27,02,05,-0.30
2008,03,27,02,06,-0.30
2008,03,27,02,07,-0.30
2008,03,27,02,08,-0.30
2008,03,27,02,09,-0.30
2008,03,27,02,10,-0.30
2008,03,27,02,11,-0.30
2008,03,27,02,12,-0.30
2008,03,27,02,13,-0.30
2008,03,27,02,14,-0.30
2008,03,27,02,15,-0.30
2008,03,27,02,16,-0.30
2008,03,27,02,17,-0.30
2008,03,27,02,18,-0.30
2008,03,27,02,19,-0.30
2008,03,27,02,20,-0.30
2008,03,27,02,21,-0.30
2008,03,27,02,22,-0.30
2008,03,27,02,23,-0.30
2008,03,27,02,24,-0.30
2008,03,27,02,25,-0.30
2008,03,27,02,26,-0.40
2008,03,27,02,27,-0.40
2008,03,27,02,28,-0.30
2008,03,27,02,29,-0.30
2008,03,27,02,30,-0.30
2008,03,27,02,31,-0.30
2008,03,27,02,32,-0.30
2008,03,27,02,33,-0.30
2008,03,27,02,34,-0.30
2008,03,27,02,35,-0.30
2008,03,27,02,36,-0.30
2008,03,27,02,37,-0.30
2008,03,27,02,38,-0.30
2008,03,27,02,39,-0.30
2008,03,27,02,40,-0.30
2008,03,27,02,41,-0.30
2008,03,27,02,42,-0.30
2008,03,27,02,43,-0.30
2008,03,27,02,44,-0.30
2008,03,27,02,45,-0.30
2008,03,27,02,46,-0.30
2008,03,27,02,47,-0.30
2008,03,27,02,48,-0.30
2008,03,27,02,49,-0.30
2008,03,27,02,50,-0.30
2008,03,27,02,51,-0.30
2008,03,27,02,52,-0.30
2008,03,27,02,53,-0.30
2008,03,27,02,54,-0.30
2008,03,27,02,55,-0.20
2008,03,27,02,56,-0.20
2008,03,27,02,57,-0.20
2008,03,27,02,58,-0.20
2008,03,27,02,59,-0.20
2008,03,27,03,00,-0.10
2008,03,27,03,01,-0.10
2008,03,27,03,02,-0.10
2008,03,27,03,03,-0.10
2008,03,27,03,04,-0.10
2008,03,27,03,05,-0.10
2008,03,27,03,06,-0.10
2008,03,27,03,07,-0.10
2008,03,27,03,08,-0.10
2008,03,27,03,09,-0.10
2008,03,27,03,10,-0.10
2008,03,27,03,11,-0.10
2008,03,27,03,12,-0.10
2008,03,27,03,13,-0.10
2008,03,27,03,14,-0.10
2008,03,27,03,15,-0.10
2008,03,27,03,16,-0.10
2008,03,27,03,17,-0.10
2008,03,27,03,18,-0.10
2008,03,27,03,19,0.00
2008,03,27,03,20,0.00
2008,03,27,03,21,0.00
2008,03,27,03,22,0.00
2008,03,27,03,23,0.00
2008,03,27,03,24,0.00
2008,03,27,03,25,0.00
2008,03,27,03,26,0.00
2008,03,27,03,27,0.00
2008,03,27,03,28,-0.10
2008,03,27,03,29,-0.10
2008,03,27,03,30,-0.20
2008,03,27,03,31,-0.20
2008,03,27,03,32,-0.20
2008,03,27,03,33,-0.10
2008,03,27,03,34,-0.10
2008,03,27,03,35,-0.10
2008,03,27,03,36,-0.10
2008,03,27,03,37,-0.10
2008,03,27,03,38,-0.10
2008,03,27,03,39,-0.10
2008,03,27,03,40,-0.10
2008,03,27,03,41,-0.10
2008,03,27,03,42,-0.10
2008,03,27,03,43,0.00
2008,03,27,03,44,0.00
2008,03,27,03,45,0.00
2008,03,27,03,46,0.00
2008,03,27,03,47,0.00
2008,03,27,03,48,0.00
2008,03,27,03,49,0.00
2008,03,27,03,50,0.10
2008,03,27,03,51,0.10
2008,03,27,03,52,0.10
2008,03,27,03,53,0.10
2008,03,27,03,54,0.10
2008,03,27,03,55,0.10
2008,03,27,03,56,0.20
2008,03,27,03,57,0.20
2008,03,27,03,58,0.20
2008,03,27,03,59,0.20
2008,03,27,04,00,0.30
2008,03,27,04,01,0.30
2008,03,27,04,02,0.40
2008,03,27,04,03,0.40
2008,03,27,04,04,0.40
2008,03,27,04,05,0.40
2008,03,27,04,06,0.40
2008,03,27,04,07,0.40
2008,03,27,04,08,0.50
2008,03,27,04,09,0.50
2008,03,27,04,10,0.60
2008,03,27,04,11,0.60
2008,03,27,04,12,0.60
2008,03,27,04,13,0.60
2008,03,27,04,14,0.60
2008,03,27,04,15,0.60
2008,03,27,04,16,0.60
2008,03,27,04,17,0.60
2008,03,27,04,18,0.60
2008,03,27,04,19,0.60
2008,03,27,04,20,0.60
2008,03,27,04,21,0.60
2008,03,27,04,22,0.60
2008,03,27,04,23,0.60
2008,03,27,04,24,0.60
2008,03,27,04,25,0.50
2008,03,27,04,26,0.50
2008,03,27,04,27,0.50
2008,03,27,04,28,0.50
2008,03,27,04,29,0.60
2008,03,27,04,30,0.60
2008,03,27,04,31,0.70
2008,03,27,04,32,0.70
2008,03,27,04,33,0.70
2008,03,27,04,34,0.70
2008,03,27,04,35,0.70
2008,03,27,04,36,0.70
2008,03,27,04,37,0.70
2008,03,27,04,38,0.70
2008,03,27,04,39,0.70
2008,03,27,04,40,0.70
2008,03,27,04,41,0.60
2008,03,27,04,42,0.60
2008,03,27,04,43,0.60
2008,03,27,04,44,0.60
2008,03,27,04,45,0.60
2008,03,27,04,46,0.70
2008,03,27,04,47,0.70
2008,03,27,04,48,0.80
2008,03,27,04,49,0.80
2008,03,27,04,50,0.80
2008,03,27,04,51,0.80
2008,03,27,04,52,0.80
2008,03,27,04,53,0.80
2008,03,27,04,54,0.90
2008,03,27,04,55,1.00
2008,03,27,04,56,1.10
2008,03,27,04,57,1.20
2008,03,27,04,58,1.30
2008,03,27,04,59,1.30
2008,03,27,05,00,1.40
2008,03,27,05,01,1.50
2008,03,27,05,02,1.40
2008,03,27,05,03,1.30
2008,03,27,05,04,1.50
2008,03,27,05,05,1.40
2008,03,27,05,06,1.50
2008,03,27,05,07,1.50
2008,03,27,05,08,1.50
2008,03,27,05,09,1.40
2008,03,27,05,10,1.30
2008,03,27,05,11,1.30
2008,03,27,05,12,1.30
2008,03,27,05,13,1.20
2008,03,27,05,14,1.10
2008,03,27,05,15,1.00
2008,03,27,05,16,0.90
2008,03,27,05,17,0.90
2008,03,27,05,18,0.80
2008,03,27,05,19,0.80
2008,03,27,05,20,0.80
2008,03,27,05,21,0.70
2008,03,27,05,22,0.70
2008,03,27,05,23,0.70
2008,03,27,05,24,0.70
2008,03,27,05,25,0.60
2008,03,27,05,26,0.70
2008,03,27,05,27,0.70
2008,03,27,05,28,0.60
2008,03,27,05,29,0.70
2008,03,27,05,30,0.70
2008,03,27,05,31,0.70
2008,03,27,05,32,0.70
2008,03,27,05,33,0.70
2008,03,27,05,34,0.80
2008,03,27,05,35,0.80
2008,03,27,05,36,0.80
2008,03,27,05,37,0.90
2008,03,27,05,38,1.00
2008,03,27,05,39,1.00
2008,03,27,05,40,1.10
2008,03,27,05,41,1.20
2008,03,27,05,42,1.20
2008,03,27,05,43,1.20
2008,03,27,05,44,1.20
2008,03,27,05,45,1.20
2008,03,27,05,46,1.20
2008,03,27,05,47,1.10
2008,03,27,05,48,1.10
2008,03,27,05,49,1.10
2008,03,27,05,50,1.10
2008,03,27,05,51,1.20
2008,03,27,05,52,1.20
2008,03,27,05,53,1.30
2008,03,27,05,54,1.30
2008,03,27,05,55,1.30
2008,03,27,05,56,1.30
2008,03,27,05,57,1.30
2008,03,27,05,58,1.30
2008,03,27,05,59,1.30
2008,03,27,06,00,1.30
2008,03,27,06,01,1.30
2008,03,27,06,02,1.30
2008,03,27,06,03,1.30
2008,03,27,06,04,1.30
2008,03,27,06,05,1.20
2008,03,27,06,06,1.20
2008,03,27,06,07,1.20
2008,03,27,06,08,1.10
2008,03,27,06,09,1.10
2008,03,27,06,10,1.20
2008,03,27,06,11,1.30
2008,03,27,06,12,1.30
2008,03,27,06,13,1.30
2008,03,27,06,14,1.30
2008,03,27,06,15,1.30
2008,03,27,06,16,1.30
2008,03,27,06,17,1.30
2008,03,27,06,18,1.30
2008,03,27,06,19,1.30
2008,03,27,06,20,1.30
2008,03,27,06,21,1.40
2008,03,27,06,22,1.40
2008,03,27,06,23,1.40
2008,03,27,06,24,1.50
2008,03,27,06,25,1.60
2008,03,27,06,26,1.60
2008,03,27,06,27,1.60
2008,03,27,06,28,1.60
2008,03,27,06,29,1.60
2008,03,27,06,30,1.70
2008,03,27,06,31,1.70
2008,03,27,06,32,1.70
2008,03,27,06,33,1.70
2008,03,27,06,34,1.70
2008,03,27,06,35,1.60
2008,03,27,06,36,1.70
2008,03,27,06,37,1.70
2008,03,27,06,38,1.70
2008,03,27,06,39,1.80
2008,03,27,06,40,1.90
2008,03,27,06,41,1.90
2008,03,27,06,42,2.00
2008,03,27,06,43,2.00
2008,03,27,06,44,2.00
2008,03,27,06,45,2.00
2008,03,27,06,46,2.00
2008,03,27,06,47,2.00
2008,03,27,06,48,2.00
2008,03,27,06,49,2.00
2008,03,27,06,50,1.90
2008,03,27,06,51,1.90
2008,03,27,06,52,1.90
2008,03,27,06,53,1.90
2008,03,27,06,54,1.90
2008,03,27,06,55,1.90
2008,03,27,06,56,1.90
2008,03,27,06,57,2.00
2008,03,27,06,58,2.00
2008,03,27,06,59,2.00
2008,03,27,07,00,2.10
2008,03,27,07,01,2.00
2008,03,27,07,02,2.00
2008,03,27,07,03,2.00
2008,03,27,07,04,2.00
2008,03,27,07,05,1.90
2008,03,27,07,06,1.90
2008,03,27,07,07,1.90
2008,03,27,07,08,1.90
2008,03,27,07,09,1.90
2008,03,27,07,10,1.90
2008,03,27,07,11,1.90
2008,03,27,07,12,1.90
2008,03,27,07,13,1.90
2008,03,27,07,14,1.90
2008,03,27,07,15,2.00
2008,03,27,07,16,2.00
2008,03,27,07,17,2.10
2008,03,27,07,18,2.10
2008,03,27,07,19,2.10
2008,03,27,07,20,2.10
2008,03,27,07,21,2.10
2008,03,27,07,22,2.10
2008,03,27,07,23,2.10
2008,03,27,07,24,2.10
2008,03,27,07,25,2.10
2008,03,27,07,26,2.10
2008,03,27,07,27,2.10
2008,03,27,07,28,2.10
2008,03,27,07,29,2.10
2008,03,27,07,30,2.10
2008,03,27,07,31,2.10
2008,03,27,07,32,2.20
2008,03,27,07,33,2.20
2008,03,27,07,34,2.20
2008,03,27,07,35,2.20
2008,03,27,07,36,2.20
2008,03,27,07,37,2.30
2008,03,27,07,38,2.30
2008,03,27,07,39,2.30
2008,03,27,07,40,2.30
2008,03,27,07,41,2.30
2008,03,27,07,42,2.30
2008,03,27,07,43,2.30
2008,03,27,07,44,2.30
2008,03,27,07,45,2.30
2008,03,27,07,46,2.30
2008,03,27,07,47,2.30
2008,03,27,07,48,2.30
2008,03,27,07,49,2.30
2008,03,27,07,50,2.30
2008,03,27,07,51,2.30
2008,03,27,07,52,2.30
2008,03,27,07,53,2.30
2008,03,27,07,54,2.30
2008,03,27,07,55,2.30
2008,03,27,07,56,2.30
2008,03,27,07,57,2.30
2008,03,27,07,58,2.30
2008,03,27,07,59,2.30
2008,03,27,08,00,2.30
2008,03,27,08,01,2.30
2008,03,27,08,02,2.40
2008,03,27,08,03,2.40
2008,03,27,08,04,2.40
2008,03,27,08,05,2.40
2008,03,27,08,06,2.40
2008,03,27,08,07,2.40
2008,03,27,08,08,2.50
2008,03,27,08,09,2.50
2008,03,27,08,10,2.50
2008,03,27,08,11,2.50
2008,03,27,08,12,2.50
2008,03,27,08,13,2.60
2008,03,27,08,14,2.60
2008,03,27,08,15,2.60
2008,03,27,08,16,2.60
2008,03,27,08,17,2.60
2008,03,27,08,18,2.60
2008,03,27,08,19,2.60
2008,03,27,08,20,2.60
2008,03,27,08,21,2.60
2008,03,27,08,22,2.60
2008,03,27,08,23,2.60
2008,03,27,08,24,2.60
2008,03,27,08,25,2.60
2008,03,27,08,26,2.70
2008,03,27,08,27,2.70
2008,03,27,08,28,2.70
2008,03,27,08,29,2.60
2008,03,27,08,30,2.60
2008,03,27,08,31,2.60
2008,03,27,08,32,2.60
2008,03,27,08,33,2.70
2008,03,27,08,34,2.70
2008,03,27,08,35,2.60
2008,03,27,08,36,2.60
2008,03,27,08,37,2.60
2008,03,27,08,38,2.70
2008,03,27,08,39,2.70
2008,03,27,08,40,2.70
2008,03,27,08,41,2.70
2008,03,27,08,42,2.80
2008,03,27,08,43,2.80
2008,03,27,08,44,2.80
2008,03,27,08,45,2.90
2008,03,27,08,46,2.90
2008,03,27,08,47,2.90
2008,03,27,08,48,2.90
2008,03,27,08,49,2.90
2008,03,27,08,50,2.90
2008,03,27,08,51,2.90
2008,03,27,08,52,2.90
2008,03,27,08,53,2.90
2008,03,27,08,54,2.90
2008,03,27,08,55,2.90
2008,03,27,08,56,2.90
2008,03,27,08,57,2.90
2008,03,27,08,58,2.90
2008,03,27,08,59,2.90
2008,03,27,09,00,2.90
2008,03,27,09,01,2.90
2008,03,27,09,02,2.90
2008,03,27,09,03,2.90
2008,03,27,09,04,2.90
2008,03,27,09,05,2.90
2008,03,27,09,06,2.90
2008,03,27,09,07,2.90
2008,03,27,09,08,2.90
2008,03,27,09,09,2.90
2008,03,27,09,10,2.90
2008,03,27,09,11,2.90
2008,03,27,09,12,2.90
2008,03,27,09,13,2.90
2008,03,27,09,14,2.90
2008,03,27,09,15,2.90
2008,03,27,09,16,2.90
2008,03,27,09,17,2.90
2008,03,27,09,18,2.90
2008,03,27,09,19,2.90
2008,03,27,09,20,3.00
2008,03,27,09,21,3.00
2008,03,27,09,22,3.00
2008,03,27,09,23,3.10
2008,03,27,09,24,3.10
2008,03,27,09,25,3.10
2008,03,27,09,26,3.10
2008,03,27,09,27,3.10
2008,03,27,09,28,3.20
2008,03,27,09,29,3.20
2008,03,27,09,30,3.20
2008,03,27,09,31,3.20
2008,03,27,09,32,3.20
2008,03,27,09,33,3.20
2008,03,27,09,34,3.20
2008,03,27,09,35,3.20
2008,03,27,09,36,3.20
2008,03,27,09,37,3.30
2008,03,27,09,38,3.30
2008,03,27,09,39,3.30
2008,03,27,09,40,3.30
2008,03,27,09,41,3.30
2008,03,27,09,42,3.30
2008,03,27,09,43,3.30
2008,03,27,09,44,3.30
2008,03,27,09,45,3.30
2008,03,27,09,46,3.30
2008,03,27,09,47,3.30
2008,03,27,09,48,3.30
2008,03,27,09,49,3.30
2008,03,27,09,50,3.30
2008,03,27,09,51,3.40
2008,03,27,09,52,3.40
2008,03,27,09,53,3.40
2008,03,27,09,54,3.40
2008,03,27,09,55,3.40
2008,03,27,09,56,3.50
2008,03,27,09,57,3.50
2008,03,27,09,58,3.50
2008,03,27,09,59,3.50
2008,03,27,10,00,3.50
2008,03,27,10,01,3.50
2008,03,27,10,02,3.50
2008,03,27,10,03,3.50
2008,03,27,10,04,3.50
2008,03,27,10,05,3.60
2008,03,27,10,06,3.60
2008,03,27,10,07,3.60
2008,03,27,10,08,3.60
2008,03,27,10,09,3.60
2008,03,27,10,10,3.60
2008,03,27,10,11,3.60
2008,03,27,10,12,3.60
2008,03,27,10,13,3.60
2008,03,27,10,14,3.60
2008,03,27,10,15,3.60
2008,03,27,10,16,3.60
2008,03,27,10,17,3.60
2008,03,27,10,18,3.60
2008,03,27,10,19,3.60
2008,03,27,10,20,3.60
2008,03,27,10,21,3.60
2008,03,27,10,22,3.60
2008,03,27,10,23,3.60
2008,03,27,10,24,3.50
2008,03,27,10,25,3.50
2008,03,27,10,26,3.40
2008,03,27,10,27,3.40
2008,03,27,10,28,3.40
2008,03,27,10,29,3.40
2008,03,27,10,30,3.40
2008,03,27,10,31,3.40
2008,03,27,10,32,3.30
2008,03,27,10,33,3.30
2008,03,27,10,34,3.30
2008,03,27,10,35,3.30
2008,03,27,10,36,3.30
2008,03,27,10,37,3.40
2008,03,27,10,38,3.40
2008,03,27,10,39,3.40
2008,03,27,10,40,3.40
2008,03,27,10,41,3.40
2008,03,27,10,42,3.50
2008,03,27,10,43,3.60
2008,03,27,10,44,3.60
2008,03,27,10,45,3.60
2008,03,27,10,46,3.70
2008,03,27,10,47,3.70
2008,03,27,10,48,3.70
2008,03,27,10,49,3.80
2008,03,27,10,50,3.80
2008,03,27,10,51,3.90
2008,03,27,10,52,4.00
2008,03,27,10,53,4.10
2008,03,27,10,54,4.20
2008,03,27,10,55,4.30
2008,03,27,10,56,4.40
2008,03,27,10,57,4.40
2008,03,27,10,58,4.50
2008,03,27,10,59,4.60
2008,03,27,11,00,4.60
2008,03,27,11,01,4.70
2008,03,27,11,02,4.60
2008,03,27,11,03,4.50
2008,03,27,11,04,4.40
2008,03,27,11,05,4.40
2008,03,27,11,06,4.40
2008,03,27,11,07,4.40
2008,03,27,11,08,4.40
2008,03,27,11,09,4.50
2008,03,27,11,10,4.50
2008,03,27,11,11,4.50
2008,03,27,11,12,4.50
2008,03,27,11,13,4.40
2008,03,27,11,14,4.30
2008,03,27,11,15,4.30
2008,03,27,11,16,4.20
2008,03,27,11,17,4.20
2008,03,27,11,18,4.20
2008,03,27,11,19,4.20
2008,03,27,11,20,4.20
2008,03,27,11,21,4.10
2008,03,27,11,22,4.10
2008,03,27,11,23,4.00
2008,03,27,11,24,3.90
2008,03,27,11,25,3.90
2008,03,27,11,26,3.90
2008,03,27,11,27,3.80
2008,03,27,11,28,3.70
2008,03,27,11,29,3.70
2008,03,27,11,30,3.70
2008,03,27,11,31,3.70
2008,03,27,11,32,3.70
2008,03,27,11,33,3.80
2008,03,27,11,34,3.80
2008,03,27,11,35,3.80
2008,03,27,11,36,3.80
2008,03,27,11,37,3.80
2008,03,27,11,38,3.90
2008,03,27,11,39,3.90
2008,03,27,11,40,3.90
2008,03,27,11,41,4.00
2008,03,27,11,42,4.00
2008,03,27,11,43,4.10
2008,03,27,11,44,4.10
2008,03,27,11,45,4.10
2008,03,27,11,46,4.10
2008,03,27,11,47,4.20
2008,03,27,11,48,4.20
2008,03,27,11,49,4.20
2008,03,27,11,50,4.20
2008,03,27,11,51,4.20
2008,03,27,11,52,4.40
2008,03,27,11,53,4.40
2008,03,27,11,54,4.40
2008,03,27,11,55,4.50
2008,03,27,11,56,4.50
2008,03,27,11,57,4.40
2008,03,27,11,58,4.40
2008,03,27,11,59,4.40
2008,03,27,12,00,4.40
2008,03,27,12,01,4.40
2008,03,27,12,02,4.40
2008,03,27,12,03,4.40
2008,03,27,12,04,4.40
2008,03,27,12,05,4.30
2008,03,27,12,06,4.30
2008,03,27,12,07,4.30
2008,03,27,12,08,4.30
2008,03,27,12,09,4.30
2008,03,27,12,10,4.30
2008,03,27,12,11,4.30
2008,03,27,12,12,4.20
2008,03,27,12,13,4.20
2008,03,27,12,14,4.20
2008,03,27,12,15,4.20
2008,03,27,12,16,4.30
2008,03,27,12,17,4.20
2008,03,27,12,18,4.20
2008,03,27,12,19,4.10
2008,03,27,12,20,4.10
2008,03,27,12,21,4.10
2008,03,27,12,22,4.10
2008,03,27,12,23,4.10
2008,03,27,12,24,4.10
2008,03,27,12,25,4.10
2008,03,27,12,26,4.20
2008,03,27,12,27,4.20
2008,03,27,12,28,4.20
2008,03,27,12,29,4.20
2008,03,27,12,30,4.20
2008,03,27,12,31,4.20
2008,03,27,12,32,4.20
2008,03,27,12,33,4.20
2008,03,27,12,34,4.20
2008,03,27,12,35,4.20
2008,03,27,12,36,4.20
2008,03,27,12,37,4.20
2008,03,27,12,38,4.30
2008,03,27,12,39,4.30
2008,03,27,12,40,4.30
2008,03,27,12,41,4.40
2008,03,27,12,42,4.40
2008,03,27,12,43,4.50
2008,03,27,12,44,4.50
2008,03,27,12,45,4.60
2008,03,27,12,46,4.60
2008,03,27,12,47,4.60
2008,03,27,12,48,4.70
2008,03,27,12,49,4.70
2008,03,27,12,50,4.80
2008,03,27,12,51,4.80
2008,03,27,12,52,4.80
2008,03,27,12,53,4.80
2008,03,27,12,54,4.70
2008,03,27,12,55,4.60
2008,03,27,12,56,4.50
2008,03,27,12,57,4.30
2008,03,27,12,58,4.30
2008,03,27,12,59,4.30
2008,03,27,13,00,4.30
2008,03,27,13,01,4.40
2008,03,27,13,02,4.60
2008,03,27,13,03,4.80
2008,03,27,13,04,5.00
2008,03,27,13,05,5.20
2008,03,27,13,06,5.40
2008,03,27,13,07,5.60
2008,03,27,13,08,5.70
2008,03,27,13,09,5.80
2008,03,27,13,10,5.90
2008,03,27,13,11,5.90
2008,03,27,13,12,5.90
2008,03,27,13,13,5.80
2008,03,27,13,14,5.60
2008,03,27,13,15,5.50
2008,03,27,13,16,5.40
2008,03,27,13,17,5.50
2008,03,27,13,18,5.50
2008,03,27,13,19,5.50
2008,03,27,13,20,5.50
2008,03,27,13,21,5.50
2008,03,27,13,22,5.40
2008,03,27,13,23,5.40
2008,03,27,13,24,5.40
2008,03,27,13,25,5.30
2008,03,27,13,26,5.30
2008,03,27,13,27,5.30
2008,03,27,13,28,5.30
2008,03,27,13,29,5.30
2008,03,27,13,30,5.40
2008,03,27,13,31,5.50
2008,03,27,13,32,5.50
2008,03,27,13,33,5.60
2008,03,27,13,34,5.60
2008,03,27,13,35,5.70
2008,03,27,13,36,5.80
2008,03,27,13,37,6.00
2008,03,27,13,38,6.10
2008,03,27,13,39,6.20
2008,03,27,13,40,6.30
2008,03,27,13,41,6.40
2008,03,27,13,42,6.60
2008,03,27,13,43,6.60
2008,03,27,13,44,6.60
2008,03,27,13,45,6.70
2008,03,27,13,46,6.70
2008,03,27,13,47,6.70
2008,03,27,13,48,6.70
2008,03,27,13,49,6.70
2008,03,27,13,50,6.70
2008,03,27,13,51,6.60
2008,03,27,13,52,6.50
2008,03,27,13,53,6.40
2008,03,27,13,54,6.30
2008,03,27,13,55,6.50
2008,03,27,13,56,6.60
2008,03,27,13,57,6.60
2008,03,27,13,58,6.60
2008,03,27,13,59,6.50
2008,03,27,14,00,6.40
2008,03,27,14,01,6.30
2008,03,27,14,02,6.20
2008,03,27,14,03,6.00
2008,03,27,14,04,5.90
2008,03,27,14,05,5.70
2008,03,27,14,06,5.70
2008,03,27,14,07,5.70
2008,03,27,14,08,5.60
2008,03,27,14,09,5.60
2008,03,27,14,10,5.50
2008,03,27,14,11,5.50
2008,03,27,14,12,5.60
2008,03,27,14,13,5.60
2008,03,27,14,14,5.60
2008,03,27,14,15,5.60
2008,03,27,14,16,5.60
2008,03,27,14,17,5.60
2008,03,27,14,18,5.70
2008,03,27,14,19,5.70
2008,03,27,14,20,5.70
2008,03,27,14,21,5.70
2008,03,27,14,22,5.60
2008,03,27,14,23,5.60
2008,03,27,14,24,5.60
2008,03,27,14,25,5.60
2008,03,27,14,26,5.60
2008,03,27,14,27,5.60
2008,03,27,14,28,5.60
2008,03,27,14,29,5.60
2008,03,27,14,30,5.60
2008,03,27,14,31,5.60
2008,03,27,14,32,5.70
2008,03,27,14,33,5.70
2008,03,27,14,34,5.80
2008,03,27,14,35,5.90
2008,03,27,14,36,5.90
2008,03,27,14,37,5.90
2008,03,27,14,38,5.90
2008,03,27,14,39,5.90
2008,03,27,14,40,5.80
2008,03,27,14,41,5.80
2008,03,27,14,42,5.80
2008,03,27,14,43,5.90
2008,03,27,14,44,6.00
2008,03,27,14,45,6.10
2008,03,27,14,46,6.10
2008,03,27,14,47,6.00
2008,03,27,14,48,5.80
2008,03,27,14,49,5.80
2008,03,27,14,50,5.70
2008,03,27,14,51,5.60
2008,03,27,14,52,5.50
2008,03,27,14,53,5.40
2008,03,27,14,54,5.40
2008,03,27,14,55,5.40
2008,03,27,14,56,5.30
2008,03,27,14,57,5.30
2008,03,27,14,58,5.20
2008,03,27,14,59,5.30
2008,03,27,15,00,5.40
2008,03,27,15,01,5.50
2008,03,27,15,02,5.60
2008,03,27,15,03,5.50
2008,03,27,15,04,5.40
2008,03,27,15,05,5.50
2008,03,27,15,06,5.50
2008,03,27,15,07,5.30
2008,03,27,15,08,5.20
2008,03,27,15,09,5.00
2008,03,27,15,10,5.00
2008,03,27,15,11,5.10
2008,03,27,15,12,5.10
2008,03,27,15,13,5.30
2008,03,27,15,14,5.40
2008,03,27,15,15,5.40
2008,03,27,15,16,5.30
2008,03,27,15,17,5.20
2008,03,27,15,18,5.20
2008,03,27,15,19,5.10
2008,03,27,15,20,5.10
2008,03,27,15,21,5.10
2008,03,27,15,22,5.10
2008,03,27,15,23,5.10
2008,03,27,15,24,5.10
2008,03,27,15,25,5.10
2008,03,27,15,26,5.10
2008,03,27,15,27,5.20
2008,03,27,15,28,5.10
2008,03,27,15,29,5.10
2008,03,27,15,30,5.10
2008,03,27,15,31,5.10
2008,03,27,15,32,5.10
2008,03,27,15,33,5.20
2008,03,27,15,34,5.20
2008,03,27,15,35,5.30
2008,03,27,15,36,5.30
2008,03,27,15,37,5.30
2008,03,27,15,38,5.30
2008,03,27,15,39,5.30
2008,03,27,15,40,5.30
2008,03,27,15,41,5.30
2008,03,27,15,42,5.40
2008,03,27,15,43,5.50
2008,03,27,15,44,5.70
2008,03,27,15,45,5.80
2008,03,27,15,46,6.00
2008,03,27,15,47,6.20
2008,03,27,15,48,6.20
2008,03,27,15,49,6.10
2008,03,27,15,50,6.00
2008,03,27,15,51,5.90
2008,03,27,15,52,5.90
2008,03,27,15,53,6.00
2008,03,27,15,54,6.10
2008,03,27,15,55,6.10
2008,03,27,15,56,6.20
2008,03,27,15,57,6.20
2008,03,27,15,58,6.10
2008,03,27,15,59,6.00
2008,03,27,16,00,5.90
2008,03,27,16,01,5.90
2008,03,27,16,02,6.00
2008,03,27,16,03,6.10
2008,03,27,16,04,6.30
2008,03,27,16,05,6.40
2008,03,27,16,06,6.40
2008,03,27,16,07,6.40
2008,03,27,16,08,6.50
2008,03,27,16,09,6.50
2008,03,27,16,10,6.60
2008,03,27,16,11,6.60
2008,03,27,16,12,6.70
2008,03,27,16,13,6.90
2008,03,27,16,14,7.00
2008,03,27,16,15,7.00
2008,03,27,16,16,7.00
2008,03,27,16,17,6.90
2008,03,27,16,18,6.90
2008,03,27,16,19,6.70
2008,03,27,16,20,6.70
2008,03,27,16,21,6.70
2008,03,27,16,22,6.60
2008,03,27,16,23,6.50
2008,03,27,16,24,6.30
2008,03,27,16,25,6.30
2008,03,27,16,26,6.40
2008,03,27,16,27,6.50
2008,03,27,16,28,6.60
2008,03,27,16,29,6.70
2008,03,27,16,30,6.80
2008,03,27,16,31,6.80
2008,03,27,16,32,6.80
2008,03,27,16,33,6.80
2008,03,27,16,34,6.80
2008,03,27,16,35,6.80
2008,03,27,16,36,6.70
2008,03,27,16,37,6.70
2008,03,27,16,38,6.60
2008,03,27,16,39,6.50
2008,03,27,16,40,6.40
2008,03,27,16,41,6.40
2008,03,27,16,42,6.50
2008,03,27,16,43,6.50
2008,03,27,16,44,6.50
2008,03,27,16,45,6.50
2008,03,27,16,46,6.50
2008,03,27,16,47,6.40
2008,03,27,16,48,6.30
2008,03,27,16,49,6.40
2008,03,27,16,50,6.40
2008,03,27,16,51,6.40
2008,03,27,16,52,6.40
2008,03,27,16,53,6.40
2008,03,27,16,54,6.40
2008,03,27,16,55,6.50
2008,03,27,16,56,6.60
2008,03,27,16,57,6.60
2008,03,27,16,58,6.60
2008,03,27,16,59,6.50
2008,03,27,17,00,6.40
2008,03,27,17,01,6.30
2008,03,27,17,02,6.30
2008,03,27,17,03,6.30
2008,03,27,17,04,6.10
2008,03,27,17,05,6.10
2008,03,27,17,06,6.00
2008,03,27,17,07,5.90
2008,03,27,17,08,5.80
2008,03,27,17,09,5.70
2008,03,27,17,10,5.70
2008,03,27,17,11,5.60
2008,03,27,17,12,5.60
2008,03,27,17,13,5.60
2008,03,27,17,14,5.70
2008,03,27,17,15,5.60
2008,03,27,17,16,5.50
2008,03,27,17,17,5.40
2008,03,27,17,18,5.30
2008,03,27,17,19,5.30
2008,03,27,17,20,5.20
2008,03,27,17,21,5.20
2008,03,27,17,22,5.10
2008,03,27,17,23,5.10
2008,03,27,17,24,5.10
2008,03,27,17,25,5.10
2008,03,27,17,26,5.10
2008,03,27,17,27,5.10
2008,03,27,17,28,5.20
2008,03,27,17,29,5.10
2008,03,27,17,30,5.10
2008,03,27,17,31,5.10
2008,03,27,17,32,5.10
2008,03,27,17,33,5.20
2008,03,27,17,34,5.20
2008,03,27,17,35,5.20
2008,03,27,17,36,5.20
2008,03,27,17,37,5.30
2008,03,27,17,38,5.30
2008,03,27,17,39,5.30
2008,03,27,17,40,5.30
2008,03,27,17,41,5.30
2008,03,27,17,42,5.30
2008,03,27,17,43,5.30
2008,03,27,17,44,5.30
2008,03,27,17,45,5.30
2008,03,27,17,46,5.30
2008,03,27,17,47,5.30
2008,03,27,17,48,5.30
2008,03,27,17,49,5.30
2008,03,27,17,50,5.30
2008,03,27,17,51,5.30
2008,03,27,17,52,5.20
2008,03,27,17,53,5.20
2008,03,27,17,54,5.20
2008,03,27,17,55,5.20
2008,03,27,17,56,5.20
2008,03,27,17,57,5.20
2008,03,27,17,58,5.20
2008,03,27,17,59,5.20
2008,03,27,18,00,5.30
2008,03,27,18,01,5.30